FLOCK 4BE-22

Last updated on Mon Sep 16 2024 00:02:03 GMT+0000 (Coordinated Universal Time)

1 60494U 24149AC 24258.90101610 .00018727 00000+0 90865-3 0 9997 2 60494 97.4380 333.9905 0006558 31.4529 328.7096 15.18518464 4413
UTC large
Height (km)
Speed (km/s)
/
Latitude / Longitude
Inclination (degrees)
Orbital Period (minutes)
Azimuth
Elevation
Range (km)
Doppler Factor

Next 0 passes for location: London (51.5072 / 0.1276)

Sorry there are no passes over London.